Weather in Gorelovka

Russia / Tomsk District     57°28′30″N   82°12′54″E
temp.,
°C
wind,
m/s
gust,
m/s
humid.,
%
clouds,
%
prec.,
mm/h
press.,
hPa
HPBL,
m
25 june, sat
sat2501:00+15sw289729 0.3 1002154
04:00+14wsw269824 0.0 1002126
07:00+17sw2591100 0.0 1002153
10:00+23sw366694 0.0 1001732
13:00+24sw5871100 0.9 10001305
16:00+25w585829 0.9 9991506
19:00+21w48785 1.9 1000817
22:00+18w26844 0.1 1000121
26 june, sun
sun2601:00+15w2285100 0.1 100028
04:00+16se1174100 0.0 99930
07:00+17sse2695100 0.4 998347
10:00+17sse389899 2.1 995540
13:00+20se3993100 2.7 993624
16:00+23wsw379098 2.4 992737
19:00+21wnw477858 2.9 993853
22:00+16nw4883100 0.0 995694
27 june, mon
mon2701:00+14w119312 0.0 99620
04:00+13ssw23985 0.0 99645
07:00+15ssw37929 0.0 996243
10:00+16sw258756 0.1 995336
13:00+15ssw3797100 1.2 996415
16:00+19sw477823 1.2 9931150
19:00+18w6955100 1.3 9931226
22:00+13wsw5978100 0.0 996773
28 june, tue
tue2801:00+11wsw51080100 0.0 997807
04:00+10wsw41086100 0.0 998758
07:00+11wsw498972 0.2 999741
10:00+12wsw5982100 0.1 1001990
13:00+13sw598299 0.2 10031010
16:00+14wsw597052 0.2 10031139
19:00+16wsw486348 0.4 10041248
22:00+13sw27808 0.1 1004203
29 june, wed
wed2901:00+10ssw399034 0.1 1004213
04:00+11ssw398889 0.0 1003285
07:00+12s2786100 0.0 1003257
10:00+15s366785 0.0 1002554
13:00+19sse464869 0.0 9991357
16:00+20se4753100 0.0 9961148
19:00+22se61254100 0.0 9931702
22:00+15ssw4896100 2.6 992507